{"data":{"norad_id":54758,"intl_designator":"2022-175A","name":"STARLINK-5464","alt_names":[],"object_type":"PAYLOAD","status":"ACTIVE","operator":null,"country":"US","launch_date":"2022-12-17","launch_site_code":"AFETR","launch_vehicle":null,"mission":null,"orbit_class":"UNKNOWN","rcs_meters":null,"size_class":null,"mass_kg":null,"dimensions":null,"purposes":["comms"],"wikipedia_slug":null,"has_3d_model":false,"image_url":null,"decayed_at":null,"tle_current":{"epoch":"2026-05-25T01:05:18.263328Z","epoch_age_seconds":71140,"freshness":"FRESH","line1":"1 54758U 22175A   26145.04535027 -.00002497  00000+0 -13881-3 0  9997","line2":"2 54758  53.2135  56.5401 0002064  85.2679 274.8548 15.08847626191512","mean_motion":15.08847626,"eccentricity":0.0002064,"inclination_deg":53.2135,"raan_deg":56.5401,"arg_perigee_deg":85.2679,"mean_anomaly_deg":274.8548,"bstar":-0.00013881,"rev_number":19151,"period_min":95.437072318395,"perigee_km":538.29223372991,"apogee_km":541.1479251323,"semimajor_km":6917.8570794311,"source":"CELESTRAK","updated_at":"2026-05-25T13:38:17.687631Z"}}}